| time (UTC) | temp F | wind direction | speed knots | gust knots | rain 1hr in | rain 24hr in | rain mn in | humidity % | barometer mb |
| 20260503060114 | 51 | 0 | 0.0 | 0.0 | 0.00 | 0.05 | 0.05 | 76 | 1016.3 |
| 20260503055038 | 51 | 0 | 0.0 | 0.0 | 0.01 | 0.05 | 0.05 | 76 | 1016.5 |
| 20260503054602 | 51 | 0 | 0.0 | 0.0 | 0.01 | 0.05 | 0.05 | 75 | 1016.5 |
| 20260503054041 | 51 | 0 | 0.0 | 0.0 | 0.01 | 0.05 | 0.05 | 75 | 1016.7 |
| 20260503053538 | 52 | 0 | 0.0 | 0.0 | 0.01 | 0.05 | 0.05 | 75 | 1016.6 |
| 20260503053052 | 52 | 0 | 0.0 | 0.0 | 0.01 | 0.05 | 0.05 | 74 | 1016.6 |
| 20260503052541 | 52 | 0 | 0.0 | 0.0 | 0.01 | 0.05 | 0.05 | 74 | 1016.6 |
| 20260503052040 | 52 | 0 | 0.0 | 0.0 | 0.01 | 0.05 | 0.05 | 73 | 1016.5 |
| 20260503051547 | 52 | 0 | 0.0 | 0.0 | 0.01 | 0.05 | 0.05 | 73 | 1016.7 |
| 20260503051037 | 52 | 0 | 0.0 | 0.0 | 0.01 | 0.05 | 0.05 | 73 | 1016.7 |
| 20260503050538 | 53 | 0 | 0.0 | 0.0 | 0.01 | 0.05 | 0.05 | 73 | 1016.7 |
| 20260503050050 | 53 | 0 | 0.0 | 0.0 | 0.01 | 0.05 | 0.05 | 72 | 1016.9 |
| 20260503045538 | 53 | 0 | 0.0 | 0.0 | 0.00 | 0.04 | 0.04 | 70 | 1017.3 |
| 20260503045038 | 53 | 0 | 0.0 | 0.0 | 0.00 | 0.04 | 0.04 | 70 | 1017.3 |
| 20260503044551 | 53 | 0 | 0.0 | 0.0 | 0.00 | 0.04 | 0.04 | 69 | 1017.1 |
| 20260503044037 | 53 | 0 | 0.0 | 0.0 | 0.00 | 0.04 | 0.04 | 70 | 1016.8 |
| 20260503043541 | 53 | 0 | 0.0 | 0.0 | 0.00 | 0.04 | 0.04 | 69 | 1016.8 |
| 20260503043049 | 53 | 0 | 0.0 | 0.0 | 0.00 | 0.04 | 0.04 | 66 | 1016.8 |
| 20260503042541 | 53 | 0 | 0.0 | 0.0 | 0.00 | 0.04 | 0.04 | 65 | 1016.7 |
| 20260503042038 | 53 | 0 | 0.0 | 0.0 | 0.00 | 0.04 | 0.04 | 65 | 1016.7 |
| 20260503041548 | 52 | 0 | 0.0 | 0.0 | 0.00 | 0.04 | 0.04 | 67 | 1016.6 |
| 20260503041039 | 52 | 0 | 0.0 | 0.0 | 0.00 | 0.04 | 0.04 | 71 | 1016.6 |
| 20260503040538 | 52 | 0 | 0.0 | 0.0 | 0.00 | 0.04 | 0.04 | 73 | 1016.8 |
| 20260503040051 | 52 | 0 | 0.0 | 0.0 | 0.00 | 0.04 | 0.04 | 74 | 1016.8 |
| 20260503035538 | 52 | 0 | 0.0 | 0.0 | 0.00 | 0.04 | 0.04 | 73 | 1016.8 |
| 20260503035038 | 52 | 0 | 0.0 | 0.0 | 0.00 | 0.04 | 0.04 | 73 | 1017.0 |
| 20260503034553 | 52 | 0 | 0.0 | 0.0 | 0.00 | 0.04 | 0.04 | 72 | 1016.7 |
| 20260503034037 | 52 | 0 | 0.0 | 0.0 | 0.00 | 0.04 | 0.04 | 73 | 1016.8 |
| 20260503033538 | 52 | 0 | 0.0 | 0.0 | 0.00 | 0.04 | 0.04 | 74 | 1016.6 |
| 20260503033100 | 52 | 0 | 0.0 | 0.0 | 0.00 | 0.04 | 0.04 | 75 | 1016.4 |
| 20260503032539 | 52 | 0 | 0.0 | 0.0 | 0.00 | 0.04 | 0.04 | 74 | 1016.4 |
| 20260503032039 | 52 | 0 | 0.0 | 0.0 | 0.00 | 0.04 | 0.04 | 74 | 1016.3 |
| 20260503031547 | 52 | 0 | 0.0 | 0.0 | 0.00 | 0.04 | 0.04 | 73 | 1016.1 |
| 20260503031039 | 52 | 0 | 0.0 | 0.0 | 0.00 | 0.04 | 0.04 | 72 | 1016.1 |
| 20260503030538 | 53 | 0 | 0.0 | 0.0 | 0.00 | 0.04 | 0.04 | 72 | 1016.1 |
| 20260503030050 | 53 | 0 | 0.0 | 0.0 | 0.00 | 0.04 | 0.04 | 72 | 1016.1 |
| 20260503025538 | 53 | 0 | 0.0 | 0.0 | 0.00 | 0.04 | 0.04 | 72 | 1016.0 |
| 20260503025038 | 53 | 0 | 0.0 | 0.0 | 0.00 | 0.04 | 0.04 | 72 | 1016.1 |
| 20260503024547 | 53 | 0 | 0.0 | 0.0 | 0.00 | 0.04 | 0.04 | 71 | 1016.1 |
| 20260503024038 | 53 | 0 | 0.0 | 0.0 | 0.00 | 0.04 | 0.04 | 72 | 1016.0 |
| 20260503023537 | 53 | 0 | 0.0 | 0.0 | 0.00 | 0.04 | 0.04 | 73 | 1015.9 |
| 20260503023050 | 53 | 0 | 0.0 | 0.0 | 0.00 | 0.04 | 0.04 | 71 | 1016.1 |
| 20260503022538 | 53 | 0 | 0.0 | 0.0 | 0.00 | 0.04 | 0.04 | 72 | 1016.1 |
| 20260503022040 | 53 | 0 | 0.0 | 0.0 | 0.00 | 0.04 | 0.04 | 71 | 1016.2 |
| 20260503021551 | 53 | 0 | 0.0 | 0.0 | 0.00 | 0.04 | 0.04 | 70 | 1016.1 |
| 20260503021039 | 53 | 0 | 0.0 | 0.0 | 0.00 | 0.04 | 0.04 | 71 | 1015.9 |
| 20260503020539 | 54 | 0 | 0.0 | 0.0 | 0.01 | 0.04 | 0.04 | 72 | 1015.9 |
| 20260503020048 | 54 | 0 | 0.0 | 0.0 | 0.02 | 0.04 | 0.04 | 71 | 1016.0 |
| 20260503015538 | 54 | 0 | 0.0 | 0.0 | 0.03 | 0.04 | 0.04 | 69 | 1016.0 |
| 20260503015039 | 54 | 0 | 0.0 | 0.0 | 0.04 | 0.04 | 0.04 | 70 | 1015.9 |
| 20260503014553 | 54 | 0 | 0.0 | 0.0 | 0.04 | 0.04 | 0.04 | 70 | 1015.7 |
| 20260503014038 | 54 | 0 | 0.0 | 0.0 | 0.04 | 0.04 | 0.04 | 70 | 1015.6 |
| 20260503013538 | 54 | 0 | 0.0 | 0.0 | 0.04 | 0.04 | 0.04 | 72 | 1015.8 |
| 20260503013045 | 54 | 0 | 0.0 | 0.0 | 0.04 | 0.04 | 0.04 | 71 | 1015.9 |
| 20260503012538 | 54 | 0 | 0.0 | 0.0 | 0.04 | 0.04 | 0.04 | 71 | 1016.3 |
| 20260503012040 | 54 | 0 | 0.0 | 0.0 | 0.04 | 0.04 | 0.04 | 69 | 1016.5 |
| 20260503011554 | 55 | 0 | 0.0 | 0.0 | 0.04 | 0.04 | 0.04 | 67 | 1016.8 |
| 20260503011119 | 55 | 0 | 0.0 | 0.0 | 0.04 | 0.04 | 0.04 | 61 | 1016.6 |
| 20260503010538 | 56 | 0 | 0.0 | 0.0 | 0.03 | 0.03 | 0.03 | 61 | 1016.7 |
| 20260503010048 | 57 | 0 | 0.0 | 0.0 | 0.02 | 0.02 | 0.02 | 58 | 1017.0 |
| 20260503005538 | 59 | 0 | 0.0 | 0.0 | 0.00 | 0.00 | 0.00 | 55 | 1017.1 |
| 20260503005038 | 61 | 0 | 0.0 | 0.0 | 0.00 | 0.00 | 0.00 | 45 | 1016.6 |
| 20260503004551 | 61 | 0 | 0.0 | 0.0 | 0.00 | 0.00 | 0.00 | 43 | 1016.1 |
| 20260503004039 | 61 | 0 | 0.0 | 0.0 | 0.00 | 0.00 | 0.00 | 41 | 1015.9 |
| 20260503003538 | 62 | 0 | 0.0 | 0.0 | 0.00 | 0.00 | 0.00 | 42 | 1015.6 |
| 20260503003051 | 62 | 0 | 0.0 | 0.0 | 0.00 | 0.00 | 0.00 | 42 | 1015.5 |
| 20260503002538 | 62 | 0 | 0.0 | 0.0 | 0.00 | 0.00 | 0.00 | 41 | 1015.3 |
| 20260503002038 | 62 | 0 | 0.0 | 0.0 | 0.00 | 0.00 | 0.00 | 40 | 1015.0 |
| 20260503001548 | 62 | 0 | 0.0 | 0.0 | 0.00 | 0.00 | 0.00 | 41 | 1015.1 |
| 20260503001039 | 62 | 0 | 0.0 | 0.0 | 0.00 | 0.00 | 0.00 | 40 | 1015.2 |
| 20260503000538 | 62 | 0 | 0.0 | 0.0 | 0.00 | 0.00 | 0.00 | 39 | 1015.1 |
| 20260503000051 | 62 | 0 | 0.0 | 0.0 | 0.00 | 0.00 | 0.00 | 41 | 1015.0 |
| 20260502235538 | 62 | 0 | 0.0 | 0.0 | 0.00 | 0.00 | 0.00 | 39 | 1014.9 |
| 20260502235038 | 62 | 0 | 0.0 | 0.0 | 0.00 | 0.00 | 0.00 | 40 | 1014.6 |
| 20260502234558 | 63 | 0 | 0.0 | 0.0 | 0.00 | 0.00 | 0.00 | 38 | 1014.4 |
| 20260502234039 | 63 | 0 | 0.0 | 0.0 | 0.00 | 0.00 | 0.00 | 38 | 1014.4 |
| 20260502233539 | 63 | 0 | 0.0 | 0.0 | 0.00 | 0.00 | 0.00 | 37 | 1014.6 |
| 20260502233050 | 64 | 0 | 0.0 | 0.0 | 0.00 | 0.00 | 0.00 | 38 | 1014.5 |
| 20260502232538 | 64 | 0 | 0.0 | 0.0 | 0.00 | 0.00 | 0.00 | 37 | 1014.5 |
| 20260502232038 | 64 | 0 | 0.0 | 0.0 | 0.00 | 0.00 | 0.00 | 35 | 1014.6 |
| 20260502231604 | 65 | 0 | 0.0 | 0.0 | 0.00 | 0.00 | 0.00 | 36 | 1014.6 |
| 20260502231038 | 65 | 0 | 0.0 | 0.0 | 0.00 | 0.00 | 0.00 | 35 | 1014.8 |
| 20260502230538 | 66 | 0 | 0.0 | 0.0 | 0.00 | 0.00 | 0.00 | 36 | 1014.8 |
| 20260502230051 | 66 | 0 | 0.0 | 0.0 | 0.00 | 0.00 | 0.00 | 35 | 1014.8 |
| 20260502225537 | 66 | 0 | 0.0 | 0.0 | 0.00 | 0.00 | 0.00 | 36 | 1014.8 |
| 20260502225037 | 66 | 0 | 0.0 | 0.0 | 0.00 | 0.00 | 0.00 | 36 | 1014.9 |
| 20260502224550 | 66 | 0 | 0.0 | 0.0 | 0.00 | 0.00 | 0.00 | 35 | 1015.0 |
| 20260502224039 | 66 | 0 | 0.0 | 0.0 | 0.00 | 0.00 | 0.00 | 33 | 1014.9 |
| 20260502223538 | 67 | 0 | 0.0 | 0.0 | 0.00 | 0.00 | 0.00 | 32 | 1015.1 |
| 20260502223051 | 67 | 0 | 0.0 | 0.0 | 0.00 | 0.00 | 0.00 | 32 | 1015.0 |
| 20260502222537 | 67 | 0 | 0.0 | 0.0 | 0.00 | 0.00 | 0.00 | 29 | 1015.1 |
| 20260502222038 | 68 | 0 | 0.0 | 0.0 | 0.00 | 0.00 | 0.00 | 29 | 1015.0 |
| 20260502221550 | 68 | 0 | 0.0 | 0.0 | 0.00 | 0.00 | 0.00 | 25 | 1015.0 |
| 20260502221041 | 68 | 0 | 0.0 | 0.0 | 0.00 | 0.00 | 0.00 | 25 | 1015.1 |
| 20260502220539 | 68 | 0 | 0.0 | 0.0 | 0.00 | 0.00 | 0.00 | 26 | 1015.1 |
| 20260502220053 | 68 | 0 | 0.0 | 0.0 | 0.00 | 0.00 | 0.00 | 25 | 1015.3 |
| 20260502215538 | 68 | 0 | 0.0 | 0.0 | 0.00 | 0.00 | 0.00 | 26 | 1015.4 |
| 20260502215038 | 68 | 0 | 0.0 | 0.0 | 0.00 | 0.00 | 0.00 | 26 | 1015.4 |
| 20260502214548 | 68 | 0 | 0.0 | 0.0 | 0.00 | 0.00 | 0.00 | 26 | 1015.4 |
| 20260502214038 | 69 | 0 | 0.0 | 0.0 | 0.00 | 0.00 | 0.00 | 26 | 1015.4 |
| 20260502213538 | 68 | 0 | 0.0 | 0.0 | 0.00 | 0.00 | 0.00 | 26 | 1015.4 |
| 20260502213053 | 68 | 0 | 0.0 | 0.0 | 0.00 | 0.00 | 0.00 | 26 | 1015.5 |
| 20260502212538 | 68 | 0 | 0.0 | 0.0 | 0.00 | 0.00 | 0.00 | 26 | 1015.6 |
| 20260502212038 | 68 | 0 | 0.0 | 0.0 | 0.00 | 0.00 | 0.00 | 27 | 1015.6 |
| 20260502211546 | 68 | 0 | 0.0 | 0.0 | 0.00 | 0.00 | 0.00 | 27 | 1015.8 |
| 20260502211038 | 68 | 0 | 0.0 | 0.0 | 0.00 | 0.00 | 0.00 | 26 | 1015.8 |
| 20260502210537 | 68 | 0 | 0.0 | 0.0 | 0.00 | 0.00 | 0.00 | 26 | 1015.8 |
| 20260502210055 | 68 | 0 | 0.0 | 0.0 | 0.00 | 0.00 | 0.00 | 26 | 1015.7 |
| 20260502205539 | 68 | 0 | 0.0 | 0.0 | 0.00 | 0.00 | 0.00 | 26 | 1015.8 |
| 20260502205038 | 68 | 0 | 0.0 | 0.0 | 0.00 | 0.00 | 0.00 | 26 | 1015.8 |
| 20260502204602 | 68 | 0 | 0.0 | 0.0 | 0.00 | 0.00 | 0.00 | 26 | 1015.9 |
| 20260502204037 | 69 | 0 | 0.0 | 0.0 | 0.00 | 0.00 | 0.00 | 25 | 1015.8 |
| 20260502203542 | 69 | 0 | 0.0 | 0.0 | 0.00 | 0.00 | 0.00 | 25 | 1015.8 |
| 20260502203052 | 69 | 0 | 0.0 | 0.0 | 0.00 | 0.00 | 0.00 | 25 | 1015.8 |
| 20260502202540 | 69 | 0 | 0.0 | 0.0 | 0.00 | 0.00 | 0.00 | 25 | 1015.9 |
| 20260502202038 | 69 | 0 | 0.0 | 0.0 | 0.00 | 0.00 | 0.00 | 25 | 1015.8 |
| 20260502201550 | 69 | 0 | 0.0 | 0.0 | 0.00 | 0.00 | 0.00 | 25 | 1015.8 |
| 20260502201038 | 70 | 0 | 0.0 | 0.0 | 0.00 | 0.00 | 0.00 | 25 | 1015.9 |
| 20260502200538 | 69 | 0 | 0.0 | 0.0 | 0.00 | 0.00 | 0.00 | 25 | 1015.9 |
| 20260502200049 | 69 | 0 | 0.0 | 0.0 | 0.00 | 0.00 | 0.00 | 25 | 1016.0 |
| 20260502195537 | 69 | 0 | 0.0 | 0.0 | 0.00 | 0.00 | 0.00 | 25 | 1015.9 |
| 20260502195037 | 70 | 0 | 0.0 | 0.0 | 0.00 | 0.00 | 0.00 | 25 | 1015.9 |
| 20260502194551 | 70 | 0 | 0.0 | 0.0 | 0.00 | 0.00 | 0.00 | 25 | 1016.0 |
| 20260502194037 | 70 | 0 | 0.0 | 0.0 | 0.00 | 0.00 | 0.00 | 25 | 1016.0 |
| 20260502193537 | 70 | 0 | 0.0 | 0.0 | 0.00 | 0.00 | 0.00 | 25 | 1015.9 |
| 20260502193055 | 70 | 0 | 0.0 | 0.0 | 0.00 | 0.00 | 0.00 | 25 | 1015.9 |
| 20260502192538 | 70 | 0 | 0.0 | 0.0 | 0.00 | 0.00 | 0.00 | 25 | 1016.1 |
| 20260502192038 | 70 | 0 | 0.0 | 0.0 | 0.00 | 0.00 | 0.00 | 25 | 1016.0 |
| 20260502191554 | 70 | 0 | 0.0 | 0.0 | 0.00 | 0.00 | 0.00 | 25 | 1016.0 |
| 20260502191038 | 70 | 0 | 0.0 | 0.0 | 0.00 | 0.00 | 0.00 | 24 | 1016.1 |
| 20260502190537 | 70 | 0 | 0.0 | 0.0 | 0.00 | 0.00 | 0.00 | 25 | 1016.1 |
| 20260502190051 | 69 | 0 | 0.0 | 0.0 | 0.00 | 0.00 | 0.00 | 25 | 1016.3 |
| 20260502185537 | 69 | 0 | 0.0 | 0.0 | 0.00 | 0.00 | 0.00 | 25 | 1016.3 |
| 20260502185037 | 69 | 0 | 0.0 | 0.0 | 0.00 | 0.00 | 0.00 | 25 | 1016.3 |
| 20260502184555 | 69 | 0 | 0.0 | 0.0 | 0.00 | 0.00 | 0.00 | 25 | 1016.4 |
| 20260502184037 | 69 | 0 | 0.0 | 0.0 | 0.00 | 0.00 | 0.00 | 25 | 1016.5 |
| 20260502183538 | 70 | 0 | 0.0 | 0.0 | 0.00 | 0.00 | 0.00 | 25 | 1016.5 |
| 20260502183048 | 70 | 0 | 0.0 | 0.0 | 0.00 | 0.00 | 0.00 | 24 | 1016.4 |
| 20260502182538 | 70 | 0 | 0.0 | 0.0 | 0.00 | 0.00 | 0.00 | 25 | 1016.5 |
| 20260502182043 | 69 | 0 | 0.0 | 0.0 | 0.00 | 0.00 | 0.00 | 26 | 1016.7 |
| 20260502181547 | 69 | 0 | 0.0 | 0.0 | 0.00 | 0.00 | 0.00 | 26 | 1016.8 |
| 20260502181037 | 69 | 0 | 0.0 | 0.0 | 0.00 | 0.00 | 0.00 | 25 | 1016.7 |
| 20260502180537 | 68 | 0 | 0.0 | 0.0 | 0.00 | 0.00 | 0.00 | 25 | 1016.9 |
| 20260502180104 | 68 | 0 | 0.0 | 0.0 | 0.00 | 0.00 | 0.00 | 25 | 1017.0 |
| 20260502164037 | 65 | 0 | 0.0 | 0.0 | 0.00 | 0.00 | 0.00 | 31 | 1017.0 |
| 20260502163537 | 64 | 0 | 0.0 | 0.0 | 0.00 | 0.00 | 0.00 | 32 | 1016.8 |
| 20260502163054 | 64 | 0 | 0.0 | 0.0 | 0.00 | 0.00 | 0.00 | 32 | 1017.0 |
| 20260502162540 | 63 | 0 | 0.0 | 0.0 | 0.00 | 0.00 | 0.00 | 33 | 1017.0 |
| 20260502162037 | 62 | 0 | 0.0 | 0.0 | 0.00 | 0.00 | 0.00 | 33 | 1016.7 |
| 20260502161553 | 62 | 0 | 0.0 | 0.0 | 0.00 | 0.00 | 0.00 | 34 | 1016.8 |
| 20260502161037 | 61 | 0 | 0.0 | 0.0 | 0.00 | 0.00 | 0.00 | 35 | 1016.8 |
| 20260502160541 | 60 | 0 | 0.0 | 0.0 | 0.00 | 0.00 | 0.00 | 36 | 1017.0 |
| 20260502152038 | 53 | 0 | 0.0 | 0.0 | 0.00 | 0.00 | 0.00 | 46 | 1016.8 |
| 20260502151600 | 52 | 0 | 0.0 | 0.0 | 0.00 | 0.00 | 0.00 | 47 | 1016.7 |
| 20260502151037 | 51 | 0 | 0.0 | 0.0 | 0.00 | 0.00 | 0.00 | 48 | 1016.7 |
| 20260502150537 | 50 | 0 | 0.0 | 0.0 | 0.00 | 0.00 | 0.00 | 50 | 1016.6 |
| 20260502130540 | 42 | 0 | 0.0 | 0.0 | 0.00 | 0.00 | 0.00 | 54 | 1016.0 |
| 20260502123541 | 42 | 0 | 0.0 | 0.0 | 0.00 | 0.00 | 0.00 | 55 | 1016.0 |
| 20260502123049 | 42 | 0 | 0.0 | 0.0 | 0.00 | 0.00 | 0.00 | 54 | 1016.0 |
| 20260502122537 | 42 | 0 | 0.0 | 0.0 | 0.00 | 0.00 | 0.00 | 52 | 1016.0 |
| 20260502122039 | 43 | 0 | 0.0 | 0.0 | 0.00 | 0.00 | 0.00 | 51 | 1016.0 |
| 20260502121552 | 43 | 0 | 0.0 | 0.0 | 0.00 | 0.00 | 0.00 | 50 | 1015.9 |
| 20260502121039 | 43 | 0 | 0.0 | 0.0 | 0.00 | 0.00 | 0.00 | 49 | 1016.1 |
| 20260502120537 | 43 | 0 | 0.0 | 0.0 | 0.00 | 0.00 | 0.00 | 49 | 1015.9 |
| 20260502115540 | 43 | 0 | 0.0 | 0.0 | 0.00 | 0.00 | 0.00 | 48 | 1015.9 |
| 20260502115037 | 43 | 0 | 0.0 | 0.0 | 0.00 | 0.00 | 0.00 | 48 | 1016.1 |
| 20260502114550 | 43 | 0 | 0.0 | 0.0 | 0.00 | 0.00 | 0.00 | 47 | 1016.1 |
| 20260502114037 | 44 | 0 | 0.0 | 0.0 | 0.00 | 0.00 | 0.00 | 48 | 1016.1 |
| 20260502113537 | 44 | 0 | 0.0 | 0.0 | 0.00 | 0.00 | 0.00 | 47 | 1016.1 |
| 20260502113047 | 44 | 0 | 0.0 | 0.0 | 0.00 | 0.00 | 0.00 | 46 | 1016.0 |
| 20260502112540 | 44 | 0 | 0.0 | 0.0 | 0.00 | 0.00 | 0.00 | 46 | 1016.1 |
| 20260502112037 | 44 | 0 | 0.0 | 0.0 | 0.00 | 0.00 | 0.00 | 45 | 1015.9 |
| 20260502111600 | 44 | 0 | 0.0 | 0.0 | 0.00 | 0.00 | 0.00 | 46 | 1015.9 |
| 20260502111036 | 44 | 0 | 0.0 | 0.0 | 0.00 | 0.00 | 0.00 | 46 | 1015.9 |
| 20260502110539 | 44 | 0 | 0.0 | 0.0 | 0.00 | 0.00 | 0.00 | 45 | 1015.8 |
| 20260502110050 | 44 | 0 | 0.0 | 0.0 | 0.00 | 0.00 | 0.00 | 46 | 1015.8 |
| 20260502105538 | 45 | 0 | 0.0 | 0.0 | 0.00 | 0.00 | 0.00 | 45 | 1015.8 |
| 20260502105037 | 45 | 0 | 0.0 | 0.0 | 0.00 | 0.00 | 0.00 | 45 | 1015.7 |
| 20260502104547 | 45 | 0 | 0.0 | 0.0 | 0.00 | 0.00 | 0.00 | 44 | 1015.8 |
| 20260502104037 | 45 | 0 | 0.0 | 0.0 | 0.00 | 0.00 | 0.00 | 44 | 1015.7 |
| 20260502103537 | 45 | 0 | 0.0 | 0.0 | 0.00 | 0.00 | 0.00 | 44 | 1015.8 |
| 20260502103106 | 46 | 0 | 0.0 | 0.0 | 0.00 | 0.00 | 0.00 | 43 | 1015.8 |
| 20260502102537 | 46 | 0 | 0.0 | 0.0 | 0.00 | 0.00 | 0.00 | 42 | 1015.8 |
| 20260502102037 | 46 | 0 | 0.0 | 0.0 | 0.00 | 0.00 | 0.00 | 42 | 1015.8 |
| 20260502101604 | 46 | 0 | 0.0 | 0.0 | 0.00 | 0.00 | 0.00 | 42 | 1015.8 |
| 20260502101038 | 46 | 0 | 0.0 | 0.0 | 0.00 | 0.00 | 0.00 | 40 | 1015.8 |
| 20260502100536 | 46 | 0 | 0.0 | 0.0 | 0.00 | 0.00 | 0.00 | 40 | 1015.8 |
| 20260502091037 | 47 | 0 | 0.0 | 0.0 | 0.00 | 0.00 | 0.00 | 40 | 1016.3 |
| 20260502090540 | 47 | 0 | 0.0 | 0.0 | 0.00 | 0.00 | 0.00 | 38 | 1016.4 |
| 20260502071038 | 52 | 0 | 0.0 | 0.0 | 0.00 | 0.00 | 0.00 | 28 | 1017.2 |
| 20260502070538 | 52 | 0 | 0.0 | 0.0 | 0.00 | 0.00 | 0.00 | 28 | 1017.1 |